Orbital Elements at Epoch 2459000.5 (2020-May-31.0) TDB
Reference: JPL 14 (heliocentric ecliptic J2000)
Element | Value | Uncertainty (1-sigma) | Units |
e | .1373937973111862 | 7.2376e-08 | |
a | 3.221525614465328 | 3.5561e-08 | au |
q | 2.778907977158684 | 2.4407e-07 | au |
i | 8.60010286626078 | 6.1652e-06 | deg |
node | 113.0998447265011 | 4.8963e-05 | deg |
peri | 176.9877288841358 | 5.9669e-05 | deg |
M | 291.4643119367514 | 3.9944e-05 | deg |
tp | 2459402.573163095138 (2021-Jul-07.07316309) | 0.00023653 | TDB |
period | 2111.984906034203 5.78 | 3.497e-05 9.574e-08 | d yr |
n | .1704557636616792 | 2.8224e-09 | deg/d |
Q | 3.664143251771972 | 4.0447e-08 | au |
|
| | Orbit Determination Parameters
Additional Information
|